Date_and_time,latitude,longitude,wind_speed,RelWindDirFrom,WindDirFrom,air_pressure,air_temperature,relative_humidity,Temp,platform_speed_wrt_ground,air_pressure_at_mean_sea_level,platform_orientation
2019-12-12 23:50,50.6304516666667,-96.9807616666667,7.6,10.2,86,993.71,-13.9,66,0.57,0.0,1023.39,90.0
2019-12-13 00:00,50.6304516666667,-96.9807666666667,8.4,10.7,88,993.55,-13.7,66,0.57,0.0,1023.21,360.0
2019-12-13 00:00,50.6304516666667,-96.9807666666667,8.7,8.8,115,993.45,-13.6,65,0.57,0.0,1023.10,360.0
2019-12-13 00:10,50.63045,-96.980765,9.0,11.0,94,993.29,-13.6,64,0.57,0.0,1022.91,360.0
2019-12-13 00:20,50.6304516666667,-96.9807633333333,8.8,10.4,97,993.29,-13.5,60,0.57,0.0,1022.89,360.0
2019-12-13 00:30,50.6304733333333,-96.9807716666667,8.4,11.2,100,993.24,-13.4,58,0.58,0.0,1022.81,360.0
2019-12-13 00:40,50.6304683333333,-96.9807633333333,7.8,9.8,95,993.11,-13.5,61,0.58,0.0,1022.66,360.0
2019-12-13 00:50,50.6304633333333,-96.980735,7.4,9.4,94,993.09,-13.6,62,0.58,0.0,1022.63,360.0
2019-12-13 01:00,50.63047,-96.9807983333333,6.8,8.9,92,993.05,-13.6,62,0.58,0.0,1022.59,356.8
2019-12-13 01:10,50.6304516666667,-96.9807433333333,6.4,8.1,91,993.03,-13.6,62,0.59,0.0,1022.57,356.8
2019-12-13 01:20,50.6304516666667,-96.9807633333333,6.6,8.9,90,992.99,-13.6,62,0.59,0.0,1022.51,356.8
2019-12-13 01:30,50.63045,-96.980765,6.7,8.8,94,992.97,-13.5,62,0.58,0.0,1022.47,356.8
2019-12-13 01:40,50.63045,-96.980765,7.7,9.7,96,992.82,-13.5,62,0.59,0.0,1022.31,356.8
2019-12-13 01:50,50.6304516666667,-96.9807683333333,8.3,10.1,101,992.75,-13.5,61,0.59,0.0,1022.23,356.8
2019-12-13 02:00,50.6304533333333,-96.9807666666667,7.6,9.0,99,992.62,-13.5,63,0.60,0.0,1022.09,90.0
2019-12-13 02:10,50.630465,-96.9807583333333,7.8,9.3,108,992.57,-13.4,63,0.60,0.0,1022.04,90.0
2019-12-13 02:20,50.6304583333333,-96.9807633333333,8.4,10.2,111,992.49,-13.4,62,0.60,0.0,1021.95,90.0
2019-12-13 02:30,50.6304583333333,-96.9807566666667,8.7,10.0,104,992.37,-13.4,62,0.60,0.0,1021.82,90.0
2019-12-13 02:40,50.6304583333333,-96.9807583333333,8.3,10.9,107,992.20,-13.3,63,0.60,0.0,1021.65,90.0
2019-12-13 02:50,50.6304583333333,-96.9807566666667,8.9,10.4,113,991.98,-13.2,62,0.60,0.0,1021.42,90.0
2019-12-13 03:00,50.6304583333333,-96.980755,8.7,10.5,114,991.86,-13.2,64,0.59,0.0,1021.30,48.3
2019-12-13 03:10,50.6304583333333,-96.9807566666667,8.8,10.5,115,991.78,-13.2,65,0.59,0.0,1021.22,48.3
2019-12-13 03:20,50.6304583333333,-96.9807583333333,8.7,10.5,116,991.72,-13.2,65,0.59,0.0,1021.15,48.3
2019-12-13 03:30,50.6304583333333,-96.9807583333333,9.1,11.2,121,991.63,-13.1,66,0.59,0.0,1021.05,48.3
2019-12-13 03:40,50.6304583333333,-96.9807583333333,10.0,11.7,121,991.53,-13.1,66,0.58,0.0,1020.95,48.3
2019-12-13 03:50,50.6304483333333,-96.9807483333333,10.3,12.7,122,991.38,-13.1,67,0.58,0.0,1020.79,48.3
2019-12-13 04:00,50.6304483333333,-96.9807516666667,10.9,12.5,123,991.30,-13.1,67,0.58,0.0,1020.70,134.2
2019-12-13 04:10,50.6304466666667,-96.9807216666667,11.1,13.3,121,991.15,-13.2,69,0.57,0.0,1020.55,134.2
2019-12-13 04:20,50.6304466666667,-96.980745,10.6,12.9,126,991.06,-13.1,70,0.57,0.0,1020.46,134.2
2019-12-13 04:30,50.63045,-96.9807516666667,10.9,13.6,131,990.88,-13.2,69,0.58,0.0,1020.26,134.2
2019-12-13 04:40,50.6304483333333,-96.9807566666667,10.4,13.2,132,990.85,-13.3,70,0.58,0.0,1020.24,134.2
2019-12-13 04:50,50.6304466666667,-96.9807733333333,11.9,14.0,127,990.63,-13.2,71,0.57,0.0,1020.01,134.2
2019-12-13 05:00,50.6304566666667,-96.980775,11.5,13.9,130,990.51,-13.2,72,0.57,0.0,1019.88,270.0
2019-12-13 05:10,50.630455,-96.9807633333333,11.3,14.3,132,990.48,-13.3,72,0.58,0.0,1019.86,270.0
2019-12-13 05:20,50.6304533333333,-96.980765,11.4,14.0,132,990.42,-13.3,72,0.58,0.0,1019.80,270.0
2019-12-13 05:30,50.6304533333333,-96.9807633333333,10.7,13.7,138,990.36,-13.7,72,0.59,0.0,1019.74,270.0
2019-12-13 05:40,50.6304533333333,-96.9807633333333,10.7,13.5,136,990.25,-13.5,73,0.59,0.0,1019.63,270.0
2019-12-13 05:50,50.630455,-96.9807616666667,10.5,13.5,134,990.29,-13.5,73,0.59,0.0,1019.67,270.0
2019-12-13 06:00,50.6304666666667,-96.98076,10.6,13.0,135,990.21,-13.5,73,0.59,0.0,1019.59,360.0
2019-12-13 06:10,50.6304633333333,-96.9807716666667,11.4,13.7,132,990.13,-13.3,73,0.59,0.0,1019.49,360.0
2019-12-13 06:20,50.630445,-96.980755,10.7,13.6,136,990.09,-13.5,75,0.59,0.0,1019.47,360.0
2019-12-13 06:30,50.630465,-96.98076,10.3,14.4,135,990.00,-13.5,75,0.59,0.0,1019.38,360.0
2019-12-13 06:40,50.6304383333333,-96.9807116666667,10.5,13.6,133,989.84,-13.4,75,0.59,0.0,1019.20,360.0
2019-12-13 06:50,50.630465,-96.9808033333333,10.4,13.3,136,989.76,-13.5,75,0.59,0.0,1019.13,360.0
2019-12-13 07:00,50.63046,-96.9807783333333,10.6,13.7,133,989.64,-13.4,76,0.59,0.0,1019.01,296.7
2019-12-13 07:10,50.63046,-96.9807716666667,9.5,12.5,135,989.58,-13.5,76,0.59,0.0,1018.95,296.7
2019-12-13 07:20,50.6304583333333,-96.9807683333333,9.9,12.6,135,989.56,-13.5,77,0.60,0.0,1018.95,296.7
2019-12-13 07:30,50.6304583333333,-96.980765,9.4,12.6,137,989.50,-13.6,77,0.60,0.0,1018.89,296.7
2019-12-13 07:40,50.63046,-96.980765,10.4,12.2,131,989.35,-13.3,78,0.59,0.0,1018.72,296.7
2019-12-13 07:50,50.63046,-96.9807666666667,9.8,12.6,132,989.22,-13.4,78,0.60,0.0,1018.58,296.7
2019-12-13 08:00,50.63046,-96.9807666666667,10.2,12.3,132,989.16,-13.3,78,0.60,0.0,1018.50,12.6
2019-12-13 08:10,50.6304683333333,-96.98075,9.5,12.1,134,989.19,-13.4,79,0.60,0.0,1018.56,12.6
2019-12-13 08:20,50.6304683333333,-96.9807616666667,9.7,12.0,133,989.18,-13.3,79,0.60,0.0,1018.54,12.6
2019-12-13 08:30,50.630465,-96.98076,9.4,11.2,130,989.15,-13.2,80,0.60,0.0,1018.49,12.6
2019-12-13 08:40,50.6304666666667,-96.9807616666667,9.7,12.7,129,989.08,-13.2,80,0.60,0.0,1018.43,12.6
2019-12-13 08:50,50.630455,-96.9807666666667,10.6,12.4,129,988.98,-13.1,81,0.60,0.0,1018.32,12.6
2019-12-13 09:00,50.630465,-96.980775,9.8,12.5,131,988.95,-13.1,82,0.60,0.0,1018.29,270.0
2019-12-13 09:10,50.6304666666667,-96.980775,10.3,12.5,130,988.83,-13.1,82,0.60,0.0,1018.17,270.0
2019-12-13 09:20,50.630465,-96.980775,10.0,12.3,127,988.68,-13.1,82,0.60,0.0,1018.02,270.0
2019-12-13 09:30,50.630465,-96.9807733333333,10.6,12.2,123,988.47,-13.0,82,0.60,0.0,1017.78,270.0
2019-12-13 09:40,50.630465,-96.9807716666667,10.7,12.1,123,988.43,-13.1,82,0.61,0.0,1017.74,270.0
2019-12-13 09:50,50.630465,-96.98077,10.2,12.6,121,988.38,-13.1,83,0.61,0.0,1017.69,270.0
2019-12-13 10:00,50.6304633333333,-96.98077,9.8,11.5,121,988.37,-13.1,83,0.61,0.0,1017.69,66.4
2019-12-13 10:10,50.63045,-96.9807166666667,9.6,11.2,123,988.33,-13.0,83,0.62,0.0,1017.64,66.4
2019-12-13 10:20,50.63046,-96.9807666666667,9.3,10.5,121,988.27,-13.0,84,0.62,0.0,1017.57,66.4
2019-12-13 10:30,50.63046,-96.98076,9.4,11.6,120,988.18,-13.0,83,0.63,0.0,1017.47,66.4
2019-12-13 10:40,50.6304633333333,-96.9807633333333,9.3,10.8,112,988.04,-13.0,84,0.63,0.0,1017.32,66.4
2019-12-13 10:50,50.6304616666667,-96.9807583333333,9.6,10.8,110,988.04,-13.0,83,0.63,0.0,1017.33,66.4
2019-12-13 11:00,50.63046,-96.98076,9.7,11.0,110,987.91,-13.0,83,0.63,0.0,1017.19,90.0
2019-12-13 11:10,50.6304583333333,-96.9807633333333,8.8,10.5,109,987.87,-13.0,83,0.63,0.0,1017.15,90.0
2019-12-13 11:20,50.6304716666667,-96.9807683333333,8.5,10.5,106,987.88,-12.9,83,0.63,0.0,1017.15,90.0
2019-12-13 11:30,50.6304566666667,-96.9807633333333,9.2,10.7,109,987.72,-12.9,83,0.63,0.0,1016.99,90.0
2019-12-13 11:40,50.6304566666667,-96.98076,8.5,10.3,102,987.69,-12.9,83,0.63,0.0,1016.95,90.0
2019-12-13 11:50,50.6304583333333,-96.9807616666667,8.4,10.0,100,987.67,-12.9,83,0.63,0.0,1016.94,90.0
2019-12-13 12:00,50.6304583333333,-96.9807583333333,8.4,9.8,101,987.59,-12.9,83,0.63,0.0,1016.85,143.4
2019-12-13 12:10,50.6304583333333,-96.9807566666667,8.1,10.2,102,987.54,-12.9,83,0.63,0.0,1016.80,143.4
2019-12-13 12:20,50.6304583333333,-96.9807583333333,7.3,8.9,94,987.54,-12.9,84,0.62,0.0,1016.80,143.4
2019-12-13 12:30,50.6304566666667,-96.9807583333333,7.1,9.0,91,987.46,-12.9,84,0.62,0.0,1016.72,143.4
2019-12-13 12:40,50.6304566666667,-96.98076,6.9,8.5,93,987.44,-12.9,85,0.62,0.0,1016.70,143.4
2019-12-13 12:50,50.6304583333333,-96.9807616666667,7.1,9.0,87,987.41,-12.9,86,0.62,0.0,1016.67,143.4
2019-12-13 13:00,50.6304933333333,-96.9807933333333,6.9,8.8,89,987.39,-12.9,86,0.62,0.0,1016.64,315.7
2019-12-13 13:10,50.6304666666667,-96.980775,7.7,10.2,85,987.28,-12.9,86,0.63,0.0,1016.53,315.7
2019-12-13 13:20,50.6304766666667,-96.980765,8.5,10.5,84,987.24,-12.9,86,0.62,0.0,1016.48,315.7
2019-12-13 13:30,50.6304633333333,-96.9807716666667,9.1,10.4,81,987.23,-12.9,86,0.62,0.0,1016.48,315.7
2019-12-13 13:40,50.6304566666667,-96.9807616666667,8.9,10.6,82,987.22,-12.9,87,0.62,0.0,1016.47,315.7
2019-12-13 13:50,50.630455,-96.9807416666667,8.9,10.1,80,987.23,-12.9,87,0.61,0.0,1016.47,315.7
2019-12-13 14:00,50.6304533333333,-96.98075,8.6,10.2,85,987.19,-12.9,86,0.61,0.0,1016.44,167.4
2019-12-13 14:10,50.6304533333333,-96.9807633333333,9.0,10.9,85,987.14,-13.0,86,0.61,0.0,1016.39,167.4
2019-12-13 14:20,50.6304533333333,-96.9807616666667,8.5,10.5,83,987.20,-12.9,87,0.61,0.0,1016.45,167.4
2019-12-13 14:30,50.6304616666667,-96.980775,8.4,9.7,81,987.29,-12.9,87,0.61,0.0,1016.54,167.4
2019-12-13 14:40,50.6304666666667,-96.9807666666667,8.5,10.2,78,987.23,-12.9,87,0.61,0.0,1016.47,167.4
2019-12-13 14:50,50.630465,-96.98076,8.8,10.3,76,987.25,-12.9,87,0.61,0.0,1016.50,167.4
2019-12-13 15:00,50.6304583333333,-96.9807566666667,8.3,9.6,73,987.34,-12.9,87,0.61,0.0,1016.59,0.0
2019-12-13 15:10,50.6304583333333,-96.9807616666667,6.9,8.1,64,987.46,-13.0,87,0.60,0.0,1016.72,0.0
2019-12-13 15:20,50.6304566666667,-96.9807633333333,7.1,8.4,71,987.49,-13.1,87,0.60,0.0,1016.75,0.0
2019-12-13 15:30,50.630455,-96.9807616666667,6.6,7.7,72,987.57,-13.0,87,0.60,0.0,1016.83,0.0
2019-12-13 15:40,50.630455,-96.9807633333333,6.5,7.4,72,987.58,-13.0,86,0.60,0.0,1016.84,0.0
2019-12-13 15:50,50.630455,-96.980765,5.9,6.6,70,987.63,-12.9,87,0.60,0.0,1016.89,0.0
2019-12-13 16:00,50.630455,-96.9807633333333,5.7,6.7,73,987.66,-12.9,87,0.60,0.0,1016.92,150.4
2019-12-13 16:10,50.630455,-96.9807633333333,4.3,5.2,61,987.69,-12.9,87,0.60,0.0,1016.95,150.4
2019-12-13 16:20,50.6304516666667,-96.9807783333333,4.3,5.0,47,987.79,-13.0,87,0.59,0.0,1017.06,150.4
2019-12-13 16:30,50.630455,-96.9807816666667,4.9,5.9,31,987.87,-13.1,87,0.59,0.0,1017.15,150.4
2019-12-13 16:40,50.6304583333333,-96.9807666666667,5.9,6.5,31,987.88,-13.2,87,0.59,0.0,1017.16,150.4
2019-12-13 16:50,50.630455,-96.9807733333333,5.8,6.6,35,987.83,-13.1,87,0.59,0.0,1017.11,150.4
2019-12-13 17:00,50.6304566666667,-96.9807683333333,6.1,7.5,32,987.72,-13.1,87,0.59,0.0,1017.00,270.0
2019-12-13 17:10,50.6304516666667,-96.9807233333333,7.1,8.0,34,987.60,-13.1,87,0.59,0.0,1016.88,270.0
2019-12-13 17:20,50.63046,-96.9807583333333,8.1,9.2,25,987.51,-13.1,87,0.59,0.0,1016.78,270.0
2019-12-13 17:30,50.6304566666667,-96.9807616666667,8.8,10.5,17,987.47,-13.1,86,0.58,0.0,1016.73,270.0
2019-12-13 17:40,50.6304533333333,-96.980765,9.4,10.5,18,987.38,-13.2,86,0.58,0.0,1016.65,270.0
2019-12-13 17:50,50.630455,-96.9807666666667,9.6,11.6,13,987.34,-13.1,86,0.58,0.0,1016.60,270.0
2019-12-13 18:00,50.630455,-96.9807666666667,10.8,12.4,12,987.29,-13.1,86,0.58,0.0,1016.55,192.6
2019-12-13 18:10,50.630455,-96.9807666666667,11.4,13.6,11,987.23,-13.1,86,0.58,0.0,1016.49,192.6
2019-12-13 18:20,50.6304683333333,-96.9807716666667,11.5,13.7,8,987.17,-13.1,86,0.58,0.0,1016.43,192.6
2019-12-13 18:30,50.6304516666667,-96.9807783333333,12.5,14.4,5,987.12,-13.1,85,0.58,0.0,1016.39,192.6
2019-12-13 18:40,50.63044,-96.9807733333333,12.2,14.6,4,987.17,-13.1,85,0.58,0.0,1016.44,192.6
2019-12-13 18:50,50.6304483333333,-96.980765,12.7,15.7,4,987.19,-13.2,85,0.58,0.0,1016.46,192.6
2019-12-13 19:00,50.6304466666667,-96.98076,12.9,16.8,2,987.26,-13.2,85,0.59,0.0,1016.53,131.7
2019-12-13 19:10,50.6304483333333,-96.98076,11.9,15.4,4,987.30,-13.3,84,0.59,0.0,1016.58,131.7
2019-12-13 19:20,50.63045,-96.9807616666667,11.8,15.2,3,987.25,-13.2,85,0.59,0.0,1016.53,131.7
2019-12-13 19:30,50.6304516666667,-96.9807616666667,11.4,14.6,359,987.23,-13.1,84,0.59,0.0,1016.50,131.7
2019-12-13 19:40,50.6304516666667,-96.9807616666667,10.9,13.9,3,987.17,-13.1,85,0.59,0.0,1016.44,131.7
2019-12-13 19:50,50.6304516666667,-96.9807616666667,10.3,12.9,4,987.12,-13.0,85,0.59,0.0,1016.38,131.7
2019-12-13 20:00,50.63043,-96.9807633333333,10.8,14.1,357,987.19,-12.9,83,0.59,0.0,1016.44,170.2
2019-12-13 20:10,50.630445,-96.98077,10.3,13.4,349,987.24,-12.9,81,0.60,0.0,1016.49,170.2
2019-12-13 20:20,50.630455,-96.9807433333333,10.1,15.7,349,987.31,-12.8,81,0.60,0.0,1016.57,170.2
2019-12-13 20:30,50.6304533333333,-96.9807583333333,11.2,14.8,347,987.38,-13.0,80,0.60,0.0,1016.65,170.2
2019-12-13 20:40,50.6304483333333,-96.98076,10.4,15.1,343,987.42,-13.1,80,0.60,0.0,1016.70,170.2
2019-12-13 20:50,50.6304466666667,-96.98076,11.3,16.0,348,987.47,-13.3,80,0.59,0.0,1016.76,170.2
2019-12-13 21:00,50.6304483333333,-96.9807633333333,12.0,16.7,347,987.54,-13.4,80,0.59,0.0,1016.84,142.0
2019-12-13 21:10,50.63045,-96.980765,10.7,14.5,347,987.78,-13.4,80,0.59,0.0,1017.09,142.0
2019-12-13 21:20,50.6304483333333,-96.980765,9.1,14.5,346,987.94,-13.3,80,0.59,0.0,1017.24,142.0
2019-12-13 21:30,50.63045,-96.9807666666667,9.4,12.5,348,988.03,-13.2,81,0.59,0.0,1017.33,142.0
2019-12-13 21:40,50.630475,-96.98078,8.7,11.2,351,988.22,-13.2,82,0.59,0.0,1017.52,142.0
2019-12-13 21:50,50.63045,-96.9807766666667,7.9,11.4,344,988.32,-13.2,82,0.59,0.0,1017.61,142.0
2019-12-13 22:00,50.6304483333333,-96.980785,10.1,14.2,341,988.43,-13.3,81,0.59,0.0,1017.73,270.0
2019-12-13 22:10,50.63045,-96.9807766666667,11.9,16.3,346,988.53,-13.5,80,0.59,0.0,1017.84,270.0
2019-12-13 22:20,50.6304516666667,-96.98072,9.6,13.3,349,988.81,-13.6,82,0.59,0.0,1018.14,270.0
2019-12-13 22:30,50.6304516666667,-96.9807633333333,12.0,15.8,340,988.88,-13.8,81,0.60,0.0,1018.23,270.0
2019-12-13 22:40,50.6304533333333,-96.980765,10.1,14.5,341,989.11,-14.0,81,0.60,0.0,1018.49,270.0
2019-12-13 22:50,50.6304533333333,-96.9807683333333,10.1,13.9,341,989.29,-14.1,81,0.60,0.0,1018.69,270.0
2019-12-13 23:00,50.6304516666667,-96.9807666666667,12.1,18.5,342,989.44,-14.3,80,0.61,0.0,1018.85,360.0
2019-12-13 23:10,50.63045,-96.9807633333333,11.5,18.5,339,989.50,-14.5,79,0.60,0.0,1018.92,360.0
2019-12-13 23:20,50.63045,-96.9807616666667,12.5,17.4,340,989.55,-14.6,79,0.60,0.0,1018.98,360.0
2019-12-13 23:30,50.63044,-96.9807633333333,12.3,17.6,337,989.65,-14.8,79,0.60,0.0,1019.10,360.0
